Tracking 25710 objects as of 5-Jul-2022
HD Live streaming from Space Station
objects crossing your sky now

FENGYUN 1C DEB

Track FENGYUN 1C DEB now!
10-day predictions


NORAD ID: 41822
Int'l Code: 1999-025EXZ
Perigee: 809.2 km
Apogee: 900.7 km
Inclination: 98.8 °
Period: 101.9 minutes
Semi major axis: 7225 km
RCS: Unknown
Launch date: May 10, 1999
Source: People's Republic of China (PRC)
Launch site: Taiyaun Space Center, China (TSC)

Note: This is SATELLITE DEBRIS
aabbcc
Your satellite tracking list
Your tracking list is empty




NASA's NSSDC Master Catalog

Two Line Element Set (TLE):
1 41822U 99025EXZ 22185.91535821  .00001146  00000-0  62153-3 0  9996
2 41822  98.8232 249.7666 0063350 223.0316 136.5893 14.13388431295574
Source of the keplerian elements: AFSPC